Regional Weather Roundup
Issued by NWS

Home | Current Version | Previous Version | Text Only | Print | Product List | Glossary Off
Versions: 1 2 3 4 5 6 7 8 9 10 11 12 13 14 15 16 17 18 19 20 21 22 23 24 25 26 27 28 29 30 31 32 33 34 35 36 37 38 39 40 41 42 43 44 45 46 47 48 49 50

000
ASUS44 KOUN 221400
RWROK

WEATHER ROUNDUP FOR OKLAHOMA
NATIONAL WEATHER SERVICE NORMAN OK
900 AM CDT MON SEP 22 2014

NOTE: "FAIR" INDICATES FEW OR NO CLOUDS BELOW 12,000 FEET WITH NO
      SIGNIFICANT WEATHER AND/OR OBSTRUCTIONS TO VISIBILITY.

OKZ001>007-009>012-014-015-017-221500-
NORTHWEST OKLAHOMA AND THE PANHANDLE

CITY           SKY/WX    TMP DP  RH WIND       PRES   REMARKS
GAGE           MOSUNNY   58  51  78 SE6       30.32R
ENID/WOODRING  MOSUNNY   63  52  67 NE12      30.30R
$$

OKZ016-021>023-033>039-044-045-221500-
SOUTHWEST OKLAHOMA

CITY           SKY/WX    TMP DP  RH WIND       PRES   REMARKS
LAWTON/REGL    SUNNY     65  51  60 NE8       30.27R
FREDERICK      CLOUDY    65  53  65 E10       30.25R
CLINTON        CLOUDY    64  48  56 E10       30.32R
HOBART         CLOUDY    63  50  62 E9        30.30R
ALTUS AFB      PTSUNNY   68  51  54 E10       30.29R
$$

OKZ018>020-024>031-221500-
CENTRAL OKLAHOMA

CITY           SKY/WX    TMP DP  RH WIND       PRES   REMARKS
OKLAHOMA CITY  MOSUNNY   66  49  54 E9        30.29R
OKC/WILEY POST SUNNY     64  50  60 E8        30.29S
STILLWATER     SUNNY     61  52  72 NE6       30.30R
GUTHRIE        SUNNY     64  52  64 VRB3      30.30R
$$

OKZ008-013-054>072-221500-
NORTHEAST OKLAHOMA

CITY           SKY/WX    TMP DP  RH WIND       PRES   REMARKS
TULSA          MOSUNNY   59  53  80 VRB3      30.31R
TULSA/JONES    SUNNY     63  53  70 NE3       30.30R
PONCA CITY     SUNNY     60  52  74 NE5       30.31R
BARTLESVILLE   SUNNY     60  53  77 NE5       30.32R
MUSKOGEE       SUNNY     61  54  77 N8        30.30R
$$

OKZ032-040>043-046>053-073>077-221500-
SOUTH CENTRAL/SOUTHEAST OKLAHOMA

CITY           SKY/WX    TMP DP  RH WIND       PRES   REMARKS
MCALESTER      PTSUNNY   66  54  65 VRB3      30.27R
$$



USA.gov is the U.S. government's official web portal to all federal, state and local government web resources and services.